This is the latest recevied weather packets stored in our database for station/object KB3FKJ. If no packets are shown the sender has not sent any weather packets the latest 10 day(s).
| Time | Temp. | Humidity | Pressure | Rain* | Wind** | Luminosity | Snow |
|---|---|---|---|---|---|---|---|
| 1778198959 | 12.78° C | 48% | 1008.6 hPa | 0 mm | - | 1 W/m² | - |
| 1778198655 | 12.78° C | 48% | 1008.4 hPa | 0 mm | - | 1 W/m² | - |
| 1778198352 | 13.33° C | 46% | 1008.5 hPa | 0 mm | - | 2 W/m² | - |
| 1778198049 | 13.33° C | 46% | 1008.3 hPa | 0 mm | - | 4 W/m² | - |
| 1778197746 | 13.33° C | 46% | 1008.4 hPa | 0 mm | - | 5 W/m² | - |
| 1778197443 | 13.33° C | 45% | 1008.2 hPa | 0 mm | - | 8 W/m² | - |
| 1778197140 | 13.33° C | 45% | 1008.3 hPa | 0 mm | - | 12 W/m² | - |
| 1778196837 | 13.33° C | 45% | 1008.4 hPa | 0 mm | - | 15 W/m² | - |
| 1778196535 | 13.33° C | 45% | 1008.2 hPa | 0 mm | - | 13 W/m² | - |
| 1778196231 | 13.89° C | 45% | 1008.3 hPa | 0 mm | - | 17 W/m² | - |
| 1778195929 | 13.89° C | 45% | 1008.2 hPa | 0 mm | - | 27 W/m² | - |
| 1778195625 | 13.89° C | 44% | 1008 hPa | 0 mm | - | 31 W/m² | - |
| 1778195321 | 13.89° C | 43% | 1008.2 hPa | 0 mm | - | 42 W/m² | - |
| 1778195019 | 13.89° C | 43% | 1008.2 hPa | 0 mm | - | 41 W/m² | - |
| 1778194718 | 13.89° C | 43% | 1008 hPa | 0 mm | - | 35 W/m² | - |
| 1778194415 | 13.89° C | 43% | 1008.2 hPa | 0 mm | - | 28 W/m² | - |
| 1778194111 | 13.89° C | 43% | 1008 hPa | 0 mm | - | 25 W/m² | - |
| 1778193808 | 13.89° C | 42% | 1008.1 hPa | 0 mm | - | 32 W/m² | - |
| 1778193504 | 13.89° C | 45% | 1008 hPa | 0 mm | - | 34 W/m² | - |
| 1778193200 | 13.89° C | 44% | 1008.1 hPa | 0 mm | - | 41 W/m² | - |
| 1778192898 | 14.44° C | 45% | 1008 hPa | 0 mm | - | 51 W/m² | - |
| 1778192594 | 14.44° C | 44% | 1008 hPa | 0 mm | - | 70 W/m² | - |
| 1778192291 | 14.44° C | 44% | 1008 hPa | 0 mm | - | 64 W/m² | - |
| 1778191988 | 14.44° C | 41% | 1008.1 hPa | 0 mm | - | 66 W/m² | - |
| 1778191683 | 14.44° C | 42% | 1008.2 hPa | 0 mm | - | 58 W/m² | - |
* Rain latest hour (hover to see other rain measurements)
** Current wind speed in m/s (hover to see current wind gust speed)